Home   Weather   Paris 17   Past weeks
Flag for France

Past Weather in Paris 17, Paris, France — Yesterday and Last 2 Weeks

Now
77 °F

Passing clouds.


Feels Like: 78 °F
Forecast: 83 / 59 °F
Wind: 8 mph from Northeast

Location: Villacoublay

Current Time: Jun 1, 2020 at 3:50:50 pm

Latest Report: Jun 1, 2020 at 3:00 pm


Visibility: N/A

Pressure: 30.07 "Hg

Humidity: 34%

Dew Point: 46 °F

Location of Paris 17Location

Past Weather in Paris 17 — Graph

°F

Paris 17 Temperature Yesterday

Maximum temperature yesterday: 72 °F (at 2:30 pm)
Minimum temperature yesterday: 57 °F (at 5:30 am)
Average temperature yesterday: 65 °F

High & Low Weather Summary for the Past Weeks

 TemperatureHumidityPressure
High82 °F (May 21, 3:30 pm)94% (May 23, 7:30 am)30.57 "Hg (May 23, 7:30 am)
Low46 °F (May 18, 6:30 am)23% (May 29, 2:30 pm)30.07 "Hg (May 22, 3:00 am)
Average65 °F55%30.28 "Hg
* Reported May 17 2:00 pm — Jun 1 2:30 pm, Paris 17. Weather by CustomWeather, © 2020

Note: Actual official high and low records may vary slightly from our data, if they occured in-between our weather recording intervals... More about our weather records

Paris 17 Weather History for the Previous 24 Hours

Scroll right to see more
 ConditionsComfort  
Time TempWeatherWind HumidityBarometerVisibility
2:30 pm
Mon, Jun 1
75 °FPassing clouds.9 mph36%30.07 "HgN/A
2:00 pm75 °FPassing clouds.10 mph34%30.07 "HgN/A
1:30 pm75 °FPassing clouds.13 mph34%30.07 "HgN/A
1:00 pm73 °FPassing clouds.14 mph38%30.07 "HgN/A
12:30 pm73 °FPassing clouds.13 mph36%30.07 "HgN/A
12:00 pm72 °FSunny.15 mph38%30.07 "Hg10 mi
11:30 am70 °FPassing clouds.10 mph43%30.07 "HgN/A
11:00 am68 °FSunny.9 mph43%30.09 "Hg10 mi
10:30 am68 °FSunny.8 mph46%30.09 "Hg10 mi
10:00 am66 °FPassing clouds.8 mph49%30.09 "HgN/A
9:30 am64 °FSunny.10 mph52%30.09 "Hg10 mi
9:00 am63 °FSunny.12 mph52%30.07 "Hg10 mi
8:30 am63 °FSunny.10 mph52%30.07 "Hg10 mi
8:00 am61 °FPassing clouds.7 mph55%30.09 "HgN/A
7:30 am59 °FPassing clouds.10 mph55%30.07 "HgN/A
7:00 am59 °FSunny.8 mph55%30.07 "Hg10 mi
6:30 am57 °FSunny.8 mph59%30.07 "Hg10 mi
6:00 am57 °FSunny.8 mph59%30.07 "Hg10 mi
5:30 am57 °FClear.8 mph59%30.07 "Hg10 mi
5:00 am57 °FClear.8 mph59%30.07 "Hg10 mi
4:30 am59 °FClear.7 mph55%30.07 "Hg10 mi
4:00 am59 °FClear.8 mph51%30.07 "Hg10 mi
3:30 am59 °FClear.8 mph51%30.07 "Hg10 mi
3:00 am59 °FClear.9 mph51%30.07 "Hg10 mi
2:30 am61 °FClear.9 mph52%30.07 "Hg10 mi
2:00 am59 °FClear.8 mph55%30.07 "Hg10 mi
1:30 am59 °FClear.8 mph55%30.09 "Hg10 mi
1:00 am59 °FClear.7 mph55%30.09 "Hg10 mi
12:30 am61 °FClear.7 mph52%30.07 "Hg10 mi
12:00 am59 °FClear.7 mph55%30.07 "Hg10 mi
11:30 pm
Sun, May 31
61 °FClear.6 mph52%30.07 "Hg10 mi
11:00 pm61 °FClear.6 mph52%30.07 "Hg10 mi
10:30 pm63 °FClear.6 mph49%30.07 "Hg10 mi
10:00 pm64 °FClear.8 mph46%30.07 "Hg10 mi
9:30 pm66 °FSunny.10 mph43%30.07 "Hg10 mi
9:00 pm68 °FPassing clouds.12 mph40%30.07 "HgN/A
8:30 pm70 °FSunny.13 mph38%30.07 "Hg10 mi
8:00 pm70 °FPassing clouds.13 mph35%30.07 "HgN/A
7:30 pm70 °FPassing clouds.10 mph38%30.07 "HgN/A
7:00 pm70 °FPassing clouds.14 mph38%30.07 "HgN/A
6:30 pm72 °FPassing clouds.10 mph36%30.07 "HgN/A
6:00 pm72 °FPassing clouds.12 mph36%30.07 "HgN/A
5:30 pm70 °FSunny.15 mph35%30.07 "Hg10 mi
5:00 pm72 °FPassing clouds.10 mph36%30.07 "HgN/A
4:30 pm72 °FPassing clouds.16 mph36%30.07 "HgN/A
4:00 pm72 °FPassing clouds.14 mph36%30.07 "HgN/A
3:30 pm72 °FPassing clouds.12 mph36%30.07 "HgN/A
3:00 pm72 °FPassing clouds.16 mph36%30.07 "HgN/A
Weather by CustomWeather, © 2020

See weather overview

Advertising